sat.trackr.live / text

‹ back to catalog

STARLINK-5465

NORAD 54775 · 2022-175T

PAYLOAD ACTIVE UNKNOWN

§ Identity

Operator
Country
US
Launch date
2022-12-17
Launch site
AFETR
Launch vehicle
Mass (kg)
RCS (m²)

Purposes: comms

External: N2YO · Heavens-Above · Gunter

§ Orbital elements

Epoch: 2026-05-25T03:30:18.584352Z

Period
95.44 min
Inclination
53.2132°
Eccentricity
0.0001218
Mean motion
15.08835389 rev/d
Perigee alt
538.9 km
Apogee alt
540.6 km
Semi-major
6,917.9 km
B*
8.9302e-5
RAAN
60.7305°
Arg perigee
90.3742°
Mean anomaly
269.7390°
Rev number
19,146

§ Raw data

STARLINK-54651 54775U 22175T   26145.14604843  .00001134  00000+0  89302-4 0  99972 54775  53.2132  60.7305 0001218  90.3742 269.7390 15.08835389191461

JSON: /api/v1/satellites/54775 · /tle

For live sub-satellite position, see the globe view (requires WebGL).

§ Visibility from observer

Set your observer location to see the next 7 days of passes ≥ 10°. The values pass through the URL so the page stays shareable.

No JS? Fill the form by hand. The geolocation button needs JavaScript.